Regional Weather Roundup
Issued by NWS Newport/Morehead, NC

Current Version | Previous Version | Text Only | Print | Product List | Glossary On
Versions: 1 2 3 4 5 6 7 8 9 10 11 12 13 14 15 16 17 18 19 20 21 22 23 24 25 26 27 28 29 30 31 32 33 34 35 36 37 38 39 40 41 42 43 44 45 46 47 48 49 50
000
ASUS42 KMHX 301212
RWRMHX
WEATHER ROUNDUP FOR EASTERN NORTH CAROLINA
NATIONAL WEATHER SERVICE NEWPORT/MOREHEAD CITY NC
800 AM EDT MON MAR 30 2015

NOTE: "FAIR" INDICATES FEW OR NO CLOUDS BELOW 12,000 FEET
WITH NO SIGNIFICANT WEATHER AND/OR OBSTRUCTIONS TO VISIBILITY

NCZ015>017-031-032-045>047-102-103-301300-
NORTH COAST

CITY           SKY/WX    TMP DP  RH WIND       PRES   REMARKS
EDENTON        CLOUDY    44  32  63 SW10      30.13S
ELIZABETH CITY CLOUDY    45  30  55 S16       30.12S
KITTY HAWK     CLOUDY    45  33  62 SW9       30.12S
MANTEO         PTSUNNY   45  33  65 SW14      30.14S

$$

NCZ045>047-081-094-103-104-301300-
CENTRAL COAST

CITY           SKY/WX    TMP DP  RH WIND       PRES   REMARKS
FRISCO         SUNNY     51  31  46 SW13G24   30.16F
SWANQUARTER      N/A     50 N/A N/A SW13G21   30.12R

$$

NCZ095-097-098-100-101-301300-
SOUTHERN COAST

CITY           SKY/WX    TMP DP  RH WIND       PRES   REMARKS
BEAUFORT       MOSUNNY   52  38  58 SW17      30.17F
CEDAR ISLAND     N/A     48 N/A N/A S8G15     30.18F
JACKSONVILLE   MOSUNNY   46  32  58 SW7       30.16F
PINEY ISLAND   PTSUNNY  N/A N/A N/A S8        30.16F
WILMINGTON     SUNNY     41  35  79 S5        30.17F


$$

NCZ011>013-027>030-043-044-078>080-089-090>093-098-301300-
COASTAL PLAIN

CITY           SKY/WX    TMP DP  RH WIND       PRES   REMARKS
AHOSKIE        CLOUDY    42  30  62 S6        30.09F
CLINTON        PTSUNNY   43  34  70 S5        30.15S
ELIZABETHTOWN  CLOUDY    45  34  64 S7        30.16S
GOLDSBORO      CLOUDY    45  40  83 SW9G18    30.12S
GREENVILLE     CLOUDY    45  32  61 SW12G18   30.13F
HAVELOCK       MOSUNNY   38  33  82 SW3       30.17F
KENANSVILLE    PTSUNNY   41  32  70 SW3       30.16S
KINSTON        MOSUNNY   43  32  65 SW10      30.14F
NEW BERN       CLOUDY    45  31  58 SW12      30.17S
RICHLANDS      MOSUNNY   39  30  70 SW7       30.17S
ROCKY MOUNT    CLOUDY    45  31  58 S12       30.11S
WASHINGTON     CLOUDY    42  30  62 SW9       30.14F
WHITEVILLE     PTSUNNY   44  36  72 SW5       30.17S

$$

AMZ130-135-150-152-154-156-158-170-250-252-270-ANZ085-086-088-633-658-670-301300-
MARINE OBSERVATIONS

STATION/POSITION TIME  TEMP    WIND        PRES    WAVE   SWELL
                       AIR SEA DIR/SP/G            HT/PER HT/PER
                 (UTC) (F)     (DEG/KT/KT) (MB)    (FT/S) (FT/S)
CHESAPEAKE LIGHT 1100   43     210/ 24/ 25 1018.3
64 E VA BEACH    1150   48 49  210/ 23/ 29 1018.6    6/ 5   3/11
DUCK             1100   45 42  200/ 16/ 21 1019.3
2 E DUCK         1111      42                N/A     3/10   2/11
10 NE DUCK       NOT AVBL
OREGON INLET     1100   47 45  200/ 16/ 19 1020.7
HATTERAS CG      1100   51 49  240/ 13/ 19 1022.2
CAPE LOOKOUT     1200   54     220/ 12/ 18 1021.4
BEAUFORT LAB     1100   51 52  230/  6/ 12 1021.2
27 SE WRIGHTSVLE 1100   54 64  240/ 17/ 19 1023.9
5 SE WRIGHTSVLE  1100   55 55  230/ 17/ 19 1022.0
225 S CAPE HAT   1150   55 67  240/  2/  6 1025.8    5/ 9   5/ 9
41 SE CHARLESTON 1150   61 68  230/ 16/ 19 1023.3    3/ 9   2/ 9

$$



USA.gov is the U.S. government's official web portal to all federal, state and local government web resources and services.